Regional Weather Roundup
Issued by NWS Grand Forks, ND

Home | Current Version | Previous Version | Text Only | Print | Product List | Glossary On
Versions: 1 2 3 4 5 6 7 8 9 10 11 12 13 14 15 16 17 18 19 20 21 22 23 24 25 26 27 28 29 30 31 32 33 34 35 36 37 38 39 40 41 42 43 44 45 46 47 48 49 50
000
ASUS43 KFGF 290931
RWRFGF
PRAIRIE TO PINES  WEATHER ROUNDUP
NATIONAL WEATHER SERVICE EASTERN NORTH DAKOTA/GRAND FORKS ND
400 AM CDT WED JUL 29 2015

 **SATELLITE DATA USED TO AUGMENT SKY COVER AT AUTOMATED STATIONS**
 *****  WEATHER ACROSS EASTERN NORTH DAKOTA  *****

CITY           SKY/WX    TMP DP  RH WIND       PRES   REMARKS
GRAND FORKS    CLOUDY    65  53  65 W28G43    29.58R
GRAND FRKS AFB CLOUDY    65  54  67 NW23G36   29.59R
GRAND FRKS NWS   N/A     63 N/A N/A W22         N/A
DEVILS LAKE    CLOUDY    63  50  63 W39G46    29.63R
FARGO          CLOUDY    66  51  58 SW22G29   29.73S
WAHPETON ARPT  SUNNY     63  46  55 SW18G24   29.83S
$$

 ***** WEATHER ACROSS CENTRAL AND WESTERN NORTH DAKOTA  *****

CITY           SKY/WX    TMP DP  RH WIND       PRES   REMARKS
BISMARCK       CLEAR     63  47  55 W21G32    29.91R
MINOT          CLOUDY    63  50  62 W28G36    29.78R
JAMESTOWN      CLEAR     62  49  62 W23G39    29.78S
MINOT AFB      MOCLDY    64  54  70 W26G32    29.76R
GARRISON         N/A     59  52  77 W17G29    29.85R
WILLISTON      MOCLDY    59  51  75 W20       29.93R
DICKINSON      PTCLDY    55  44  66 W13       29.98S
HETTINGER      CLEAR     51  41  68 NW8       30.07S
$$

 *****  OTHER AIRPORT OBSERVATIONS IN OUR AREA  *****

CITY           SKY/WX    TMP DP  RH WIND       PRES   REMARKS
WALHALLA       FAIR      61  61 100 MISG      29.47R
GRAFTON AIRPOR CLOUDY    64  55  72 W28G38    29.54R
VALLEY CITY AR NOT AVBL
CANDO          CLOUDY    59  55  88 NW32G53   29.62R
CAVALIER APRT  PTSUNNY   63  55  77 W21G40    29.48R
GWINNER        FAIR      61  52  72 SW16G23   29.86S
SHEYENNE NWR     N/A     64  49  57 W18       29.95S
ROLLA          FAIR      57  55  94 W24G37    29.62R
 ***** THE ABOVE OBSERVATIONS ARE NON NWS ARE NOT QUALITY
       CONTROLLED AND MAY MIS-REPORT RAIN FOR SNOW...
$$

  *****  WEATHER ACROSS NORTHERN MINNESOTA  *****

CITY           SKY/WX    TMP DP  RH WIND       PRES   REMARKS
FLAG ISLAND    LGT RAIN  63  59  88 SW28G38   29.39S
WARROAD        CLOUDY    61  57  88 SW16G25   29.46S
ROSEAU         CLOUDY    61  54  77 SW20G25   29.46R
HALLOCK        CLOUDY    64  57  77 W24       29.48R
THF RVR FALLS  CLOUDY    63  54  72 SW23G33   29.58R
BAUDETTE       CLOUDY    62  53  72 SW24G38   29.49F
WASKISH        CLOUDY    64  55  72 SW29G37   29.57F
CROOKSTON      CLOUDY    64  54  68 W21G30    29.62R
STEPHEN NDAWN    N/A     63  55  77 W18         N/A
GREENBUSH NDAW   N/A     63  55  77 SW18        N/A
$$
  *****  WEATHER ACROSS CENTRAL AND WEST MINNESOTA  *****

CITY           SKY/WX    TMP DP  RH WIND       PRES   REMARKS
FOSSTON        CLOUDY    61  52  72 SW22G31   29.66S
BEMIDJI        CLOUDY    63  51  65 SW21G31   29.66S
PARK RAPIDS    CLOUDY    65  49  56 W20G35    29.72F
ELBOW LAKE     FAIR      62  49  61 W15G23    29.85F
WADENA         CLOUDY    64  48  55 W17G33    29.78S
DETROIT LAKES  CLOUDY    64  50  59 W21G30    29.76F
MOORHEAD       CLOUDY    64  52  63 SW18G24   29.76S
FERGUS FALLS   CLEAR     61  50  67 W16       29.82F
MORRIS MN      CLEAR     63  52  67 W16       29.88F
STAPLES        CLOUDY    64  46  52 W18G32    29.79F
$$
  *****  WEATHER ELSEWHERE ACROSS MINNESOTA  *****

CITY           SKY/WX    TMP DP  RH WIND       PRES   REMARKS
DULUTH         CLEAR     64  50  60 SW14      29.73F
INTRNTL FALLS  LGT RAIN  64  50  60 SW15G29   29.55S
ELY            CLEAR     63  48  59 SW10G18   29.65F
CLOQUET        NOT AVBL
WHEATON        CLEAR     63  50  63 W15G22    29.90S
BRAINERD       CLEAR     66  47  50 W26G35    29.78S
HIBBING        CLEAR     64  47  53 SW9G17    29.68S
ALEXANDRIA     CLEAR     65  48  54 W22G39    29.86F
SAINT CLOUD    CLEAR     68  48  48 W20       29.86F
MINNEAPOLIS    CLEAR     67  54  63 SW9       29.92S
$$

  *****  WEATHER ACROSS SOUTH DAKOTA  *****

CITY           SKY/WX    TMP DP  RH WIND       PRES   REMARKS
SIOUX FALLS    CLEAR     63  52  67 SW3       30.07R
BROOKINGS      CLEAR     57  48  72 SW8       30.05R
WATERTOWN      CLEAR     61  48  62 W13       29.97F
HURON          CLEAR     63  47  55 W12       30.02S
SISSETON         N/A     64  49  57 W14       29.90R
ABERDEEN       CLEAR     56  49  77 SW9       29.96S
MITCHELL       CLEAR     62  51  67 W10       30.07R
PIERRE         CLEAR     61  45  55 W13       30.07R
MOBRIDGE       CLEAR     62  46  55 W12       29.99R
RAPID CITY     CLEAR     56  39  53 SW5       30.20S
$$

  *****  SOME WEATHER IN NEARBY STATES *****

CITY           SKY/WX    TMP DP  RH WIND       PRES   REMARKS
GLASGOW MT     MOCLDY    55  47  74 W6        30.03R
GREAT FALLS MT CLEAR     52  40  63 SW9       30.19S
CHEYENNE WY    PTCLDY    56  30  37 CALM      30.34S
SCOTTSBLUFF NE CLEAR     52  46  80 N3        30.27R
OMAHA NE       MOCLDY    65  62  90 N7        30.08R
DES MOINES IA  CLOUDY    73  70  90 CALM      30.03R
DAVENPORT IA   CLOUDY    73  70  90 W7        29.97R
CHICAGO IL     CLOUDY    77  71  82 SW5       29.93R
EAU CLAIRE WI  PTCLDY    65  59  81 SW7       29.90S
LA CROSSE WI   CLOUDY    71  61  70 NW6       29.94R
$$

  *****  SOME NATIONAL WEATHER *****

CITY           SKY/WX    TMP DP  RH WIND       PRES   REMARKS
LA GUARDIA NY  PTCLDY    80  66  62 NW3       29.94S
RALEIGH NC     MOCLDY    76  69  79 S5        30.00R
ATLANTA GA     MOCLDY    76  71  85 NW6       29.96S
NEW ORLEANS LA PTCLDY    80  74  81 NW5       29.98S
OKLAHOMA CITY  PTCLDY    72  68  87 S5        29.99S
ALBUQUERQUE NM MOCLDY    72  53  51 SE5       30.23S
SALT LAKE CITY CLEAR     59  32  36 S3        30.25S
LOS ANGELES CA CLOUDY    66  63  90 W7        29.92F
BOISE ID       CLEAR     61  37  41 SE5       30.20S
SEATTLE WA     CLEAR     65  54  67 NE6       30.21S
$$

*** WEATHER ACROSS MANITOBA...SASKATCHEWAN AND ONTARIO ***
                ***ONTARIO***

CITY           SKY/WX    TMP DP  RH WIND       PRES   REMARKS
GERALDTON      PTCLDY    66  61  82 S8        29.65F
THUNDER BAY    PTCLDY    72  57  60 SW10      29.63S
SIOUX LOOKOUT  MOCLDY    66  52  59 S14G25    29.47F
TORONTO        PTCLDY    70  63  78 NW6       29.97S
BIG TROUT LK   MOCLDY    68  66  94 S13G18    29.39F
PICKLE LAKE    NOT AVBL
DRYDEN         CLOUDY    66  50  55 S21G32    29.43F
KENORA         LGT RAIN  61  59  94 SW23G38   29.37F
$$
                *** MANITOBA***

CITY           SKY/WX    TMP DP  RH WIND       PRES   REMARKS
BRANDON        CLOUDY    59  55  88 NW28G44   29.54R
DAUPHIN        LGT RAIN  61  57  88 W16G22    29.44R
ISLAND LAKE    PTCLDY    63  59  88 SE9       29.30F
PILOT MOUND      N/A     57  55  94 W17G28      N/A
THE PAS        CLOUDY    63  55  77 NW21G33   29.48R
THOMPSON       LGT RAIN  59  57  94 N15G24    29.32
WINNIPEG       LGT RAIN  63  61  94 W17G23    29.35R
LYNN LAKE        N/A    N/A N/A N/A MISG        N/A
CHURCHILL      LGT RAIN  48  48 100 NE14      29.61F FOG
GILLAM         LGT RAIN  59  59 100 NE17G29   29.29F
$$
                ***SASKATCHEWAN***

CITY           SKY/WX    TMP DP  RH WIND       PRES   REMARKS
ESTEVAN        CLOUDY    59  54  82 W17G25    29.83
KINDERSLEY     CLEAR     54  50  87 W8        29.98R
LLOYDMINSTER   CLEAR     57  48  72 W12       29.93S
PRINCE ALBERT  MOCLDY    54  52  94 W7        29.77R
REGINA         PTCLDY    57  52  82 W14G21    29.85R
YORKTON        CLOUDY    61  55  82 NW20G26   29.66R
N. BATTLEFORD  CLEAR     57  50  77 NW10      29.90S
LA RONGE       NOT AVBL
SASKATOON      PTCLDY    55  52  88 W9        29.86R
SWIFT CURRENT  CLEAR     54  48  82 W12       29.99R
$$
NOTE: THESE ARE AUTOMATED STATIONS WITH LIMITED QUALITY CONTROL
      "FAIR" INDICATES FEW OR NO CLOUDS BELOW 12,000 FEET WITH NO
      SIGNIFICANT WEATHER AND/OR OBSTRUCTIONS TO VISIBILITY.
      SKY/WX - SKY CONDITION AND SIGNIFICANT WEATHER.
      TMP - AIR TEMPERATURE.    DP   - DEWPOINT TEMPERATURE.
      RH  - RELATIVE HUMIDITY.  PRES - PRESSURE.
      HX  - HEAT INDEX.         WCI  - WIND CHILL INDEX.
$



USA.gov is the U.S. government's official web portal to all federal, state and local government web resources and services.